Location: Dana
(41.8364°N, 106.7042°W)
Time: 20:47:57
(UTC+00:00)

Injun/Solrad 3 - Pass Details

Date: 12 May 2026
Orbit: 867 x 989 km, 66.8° (Epoch: 6 June)

Event Time Altitude Azimuth Distance (km) Brightness Sun altitude
Rises 01:14:37 0° 259° (W) 3,535 12.2 9.9°
Reaches altitude 10° 01:17:54 10° 277° (W) 2,620 12.8 9.3°
Maximum altitude 01:22:08 19° 321° (NW) 2,072 10.8 8.6°
Drops below altitude 10° 01:26:29 10° 6° (N) 2,687 10.5 7.8°
Sets 01:29:55 0° 23° (NNE) 3,658 11.0 7.2°
